| time (UTC) | temp F | wind direction | speed MPH | gust MPH | rain 1hr in | rain 24hr in | rain mn in | humidity % | barometer mb |
| 20260507210504 | 65 | 123 | 1.0 | 1.0 | 0.00 | 0.00 | 0.00 | 66 | 1001.9 |
| 20260507210004 | 65 | 35 | 2.0 | 3.0 | 0.00 | 0.00 | 0.00 | 66 | 1001.8 |
| 20260507205504 | 65 | 184 | 1.0 | 2.0 | 0.00 | 0.00 | 0.00 | 65 | 1001.6 |
| 20260507205004 | 65 | 174 | 2.0 | 3.0 | 0.00 | 0.00 | 0.00 | 65 | 1001.8 |
| 20260507204504 | 65 | 142 | 3.0 | 5.0 | 0.00 | 0.00 | 0.00 | 65 | 1002.0 |
| 20260507204004 | 65 | 198 | 1.0 | 5.0 | 0.00 | 0.00 | 0.00 | 66 | 1002.2 |
| 20260507203504 | 65 | 190 | 3.0 | 6.0 | 0.00 | 0.00 | 0.00 | 66 | 1002.1 |
| 20260507203004 | 65 | 196 | 1.0 | 6.0 | 0.00 | 0.00 | 0.00 | 67 | 1002.4 |
| 20260507202504 | 65 | 141 | 1.0 | 3.0 | 0.00 | 0.00 | 0.00 | 66 | 1002.4 |
| 20260507202004 | 65 | 230 | 3.0 | 5.0 | 0.00 | 0.00 | 0.00 | 67 | 1002.2 |
| 20260507201505 | 65 | 155 | 1.0 | 2.0 | 0.00 | 0.00 | 0.00 | 66 | 1002.9 |
| 20260507201004 | 64 | 150 | 0.0 | 1.0 | 0.00 | 0.00 | 0.00 | 68 | 1002.9 |
| 20260507200004 | 64 | 122 | 2.0 | 5.0 | 0.00 | 0.00 | 0.00 | 68 | 1002.1 |
| 20260507195504 | 64 | 107 | 1.0 | 3.0 | 0.00 | 0.00 | 0.00 | 68 | 1002.4 |
| 20260507195004 | 64 | 188 | 1.0 | 5.0 | 0.00 | 0.00 | 0.00 | 68 | 1002.6 |
| 20260507194504 | 64 | 111 | 0.0 | 1.0 | 0.00 | 0.00 | 0.00 | 68 | 1002.8 |
| 20260507193504 | 64 | 78 | 2.0 | 3.0 | 0.00 | 0.00 | 0.00 | 67 | 1003.3 |
| 20260507193004 | 65 | 133 | 1.0 | 3.0 | 0.00 | 0.00 | 0.00 | 67 | 1003.3 |
| 20260507192504 | 64 | 87 | 1.0 | 3.0 | 0.00 | 0.00 | 0.00 | 68 | 1003.6 |
| 20260507192004 | 64 | 46 | 0.0 | 1.0 | 0.00 | 0.00 | 0.00 | 68 | 1003.4 |
| 20260507191504 | 64 | 96 | 0.0 | 5.0 | 0.00 | 0.00 | 0.00 | 68 | 1003.2 |
| 20260507191004 | 65 | 187 | 3.0 | 5.0 | 0.00 | 0.00 | 0.00 | 68 | 1003.1 |
| 20260507190504 | 64 | 167 | 0.0 | 3.0 | 0.00 | 0.00 | 0.00 | 68 | 1003.2 |
| 20260507190005 | 64 | 197 | 3.0 | 6.0 | 0.00 | 0.00 | 0.00 | 69 | 1002.9 |
| 20260507185504 | 64 | 195 | 2.0 | 6.0 | 0.00 | 0.00 | 0.00 | 70 | 1002.6 |
| 20260507184504 | 63 | 148 | 1.0 | 3.0 | 0.00 | 0.00 | 0.00 | 71 | 1003.1 |
| 20260507184004 | 63 | 288 | 3.0 | 7.0 | 0.00 | 0.00 | 0.00 | 72 | 1002.8 |
| 20260507183504 | 62 | 155 | 3.0 | 5.0 | 0.00 | 0.00 | 0.00 | 71 | 1002.6 |
| 20260507183004 | 63 | 61 | 2.0 | 8.0 | 0.00 | 0.00 | 0.00 | 70 | 1002.7 |
| 20260507182504 | 63 | 195 | 3.0 | 8.0 | 0.00 | 0.00 | 0.00 | 70 | 1002.9 |
| 20260507181504 | 63 | 186 | 2.0 | 5.0 | 0.00 | 0.00 | 0.00 | 70 | 1003.0 |
| 20260507181004 | 63 | 184 | 2.0 | 6.0 | 0.00 | 0.00 | 0.00 | 70 | 1003.2 |
| 20260507180503 | 63 | 159 | 3.0 | 6.0 | 0.00 | 0.00 | 0.00 | 70 | 1003.1 |
| 20260507180004 | 64 | 66 | 2.0 | 3.0 | 0.00 | 0.00 | 0.00 | 70 | 1003.4 |
| 20260507175504 | 63 | 164 | 1.0 | 6.0 | 0.00 | 0.00 | 0.00 | 70 | 1003.7 |
| 20260507175004 | 63 | 204 | 4.0 | 6.0 | 0.00 | 0.00 | 0.00 | 69 | 1004.0 |
| 20260507174504 | 63 | 93 | 2.0 | 6.0 | 0.00 | 0.00 | 0.00 | 71 | 1003.8 |
| 20260507174004 | 63 | 127 | 1.0 | 5.0 | 0.00 | 0.00 | 0.00 | 71 | 1003.4 |
| 20260507173504 | 62 | 190 | 2.0 | 8.0 | 0.00 | 0.00 | 0.00 | 73 | 1003.1 |
| 20260507173004 | 62 | 164 | 5.0 | 8.0 | 0.00 | 0.00 | 0.00 | 74 | 1002.6 |
| 20260507172504 | 62 | 190 | 2.0 | 7.0 | 0.00 | 0.00 | 0.00 | 75 | 1003.2 |
| 20260507172004 | 61 | 121 | 1.0 | 3.0 | 0.00 | 0.00 | 0.00 | 78 | 1003.3 |
| 20260507171504 | 60 | 47 | 2.0 | 6.0 | 0.00 | 0.00 | 0.00 | 79 | 1003.5 |
| 20260507171004 | 60 | 69 | 2.0 | 6.0 | 0.00 | 0.00 | 0.00 | 80 | 1003.8 |
| 20260507170504 | 60 | 120 | 2.0 | 5.0 | 0.00 | 0.00 | 0.00 | 82 | 1003.5 |
| 20260507170004 | 59 | 173 | 1.0 | 5.0 | 0.00 | 0.00 | 0.00 | 83 | 1003.1 |
| 20260507165504 | 59 | 170 | 2.0 | 6.0 | 0.00 | 0.00 | 0.00 | 84 | 1002.8 |
| 20260507165004 | 59 | 152 | 2.0 | 5.0 | 0.00 | 0.00 | 0.00 | 84 | 1002.9 |
| 20260507164504 | 59 | 149 | 1.0 | 3.0 | 0.00 | 0.00 | 0.00 | 84 | 1003.2 |
| 20260507164004 | 58 | 355 | 2.0 | 5.0 | 0.00 | 0.00 | 0.00 | 83 | 1003.9 |
| 20260507163504 | 59 | 30 | 2.0 | 3.0 | 0.00 | 0.00 | 0.00 | 82 | 1003.7 |
| 20260507163004 | 59 | 126 | 2.0 | 3.0 | 0.00 | 0.00 | 0.00 | 82 | 1004.3 |
| 20260507162504 | 59 | 133 | 1.0 | 3.0 | 0.00 | 0.00 | 0.00 | 80 | 1004.8 |
| 20260507162004 | 59 | 180 | 2.0 | 3.0 | 0.00 | 0.00 | 0.00 | 79 | 1004.9 |
| 20260507161504 | 59 | 226 | 0.0 | 3.0 | 0.00 | 0.00 | 0.00 | 80 | 1005.3 |
| 20260507161004 | 58 | 77 | 2.0 | 6.0 | 0.00 | 0.00 | 0.00 | 81 | 1005.1 |
| 20260507160503 | 59 | 128 | 3.0 | 6.0 | 0.00 | 0.00 | 0.00 | 81 | 1004.9 |
| 20260507155504 | 59 | 78 | 2.0 | 3.0 | 0.00 | 0.00 | 0.00 | 82 | 1004.3 |
| 20260507155004 | 58 | 103 | 2.0 | 3.0 | 0.00 | 0.00 | 0.00 | 83 | 1004.4 |
| 20260507154504 | 59 | 77 | 1.0 | 5.0 | 0.00 | 0.00 | 0.00 | 83 | 1004.5 |
| 20260507153504 | 58 | 196 | 1.0 | 3.0 | 0.00 | 0.00 | 0.00 | 82 | 1004.6 |
| 20260507152504 | 58 | 211 | 1.0 | 3.0 | 0.00 | 0.00 | 0.00 | 84 | 1004.2 |
| 20260507152004 | 58 | 134 | 1.0 | 5.0 | 0.00 | 0.00 | 0.00 | 84 | 1004.5 |
| 20260507151504 | 58 | 141 | 1.0 | 3.0 | 0.00 | 0.00 | 0.00 | 84 | 1004.8 |
| 20260507151004 | 58 | 119 | 2.0 | 5.0 | 0.00 | 0.00 | 0.00 | 85 | 1004.4 |
| 20260507150504 | 58 | 109 | 2.0 | 5.0 | 0.00 | 0.00 | 0.00 | 86 | 1003.8 |
| 20260507150005 | 58 | 121 | 2.0 | 5.0 | 0.00 | 0.00 | 0.00 | 86 | 1004.5 |
| 20260507145503 | 58 | 350 | 2.0 | 6.0 | 0.00 | 0.00 | 0.00 | 86 | 1004.8 |
| 20260507145004 | 58 | 95 | 2.0 | 6.0 | 0.00 | 0.00 | 0.00 | 86 | 1004.5 |
| 20260507144504 | 57 | 98 | 2.0 | 6.0 | 0.00 | 0.00 | 0.00 | 87 | 1003.6 |
| 20260507144004 | 57 | 131 | 3.0 | 5.0 | 0.00 | 0.00 | 0.00 | 87 | 1003.8 |
| 20260507143504 | 57 | 99 | 3.0 | 7.0 | 0.00 | 0.00 | 0.00 | 88 | 1004.2 |
| 20260507143004 | 57 | 71 | 2.0 | 6.0 | 0.00 | 0.00 | 0.00 | 88 | 1004.0 |
| 20260507142504 | 56 | 105 | 3.0 | 8.0 | 0.00 | 0.00 | 0.00 | 88 | 1004.0 |
| 20260507142004 | 56 | 131 | 2.0 | 6.0 | 0.00 | 0.00 | 0.00 | 89 | 1004.3 |
| 20260507141504 | 56 | 187 | 2.0 | 6.0 | 0.00 | 0.00 | 0.00 | 90 | 1004.0 |
| 20260507140503 | 56 | 139 | 3.0 | 5.0 | 0.00 | 0.00 | 0.00 | 90 | 1004.1 |
| 20260507140004 | 56 | 107 | 1.0 | 6.0 | 0.00 | 0.00 | 0.00 | 91 | 1004.0 |
| 20260507135504 | 56 | 149 | 1.0 | 2.0 | 0.00 | 0.00 | 0.00 | 91 | 1003.9 |
| 20260507135004 | 56 | 80 | 2.0 | 5.0 | 0.00 | 0.00 | 0.00 | 91 | 1004.0 |
| 20260507134504 | 56 | 116 | 2.0 | 5.0 | 0.00 | 0.00 | 0.00 | 92 | 1003.7 |
| 20260507134004 | 56 | 119 | 2.0 | 5.0 | 0.00 | 0.00 | 0.00 | 92 | 1003.6 |
| 20260507133004 | 56 | 72 | 3.0 | 6.0 | 0.00 | 0.00 | 0.00 | 92 | 1003.3 |
| 20260507132004 | 56 | 77 | 1.0 | 6.0 | 0.00 | 0.00 | 0.00 | 92 | 1003.6 |
| 20260507131504 | 56 | 167 | 2.0 | 8.0 | 0.00 | 0.00 | 0.00 | 92 | 1003.5 |
| 20260507131004 | 56 | 103 | 3.0 | 8.0 | 0.00 | 0.00 | 0.00 | 92 | 1003.4 |
| 20260507130504 | 56 | 90 | 2.0 | 5.0 | 0.00 | 0.00 | 0.00 | 92 | 1003.7 |
| 20260507125504 | 55 | 27 | 3.0 | 6.0 | 0.00 | 0.00 | 0.00 | 92 | 1003.6 |
| 20260507125004 | 55 | 251 | 1.0 | 3.0 | 0.00 | 0.00 | 0.00 | 92 | 1003.7 |
| 20260507124503 | 55 | 70 | 2.0 | 6.0 | 0.00 | 0.00 | 0.00 | 92 | 1003.5 |
| 20260507123504 | 55 | 52 | 1.0 | 7.0 | 0.00 | 0.00 | 0.00 | 92 | 1003.6 |
| 20260507122504 | 55 | 172 | 3.0 | 7.0 | 0.00 | 0.00 | 0.00 | 92 | 1003.3 |
| 20260507121504 | 55 | 130 | 4.0 | 10.0 | 0.00 | 0.00 | 0.00 | 92 | 1003.4 |
| 20260507121004 | 55 | 140 | 2.0 | 13.0 | 0.00 | 0.00 | 0.00 | 92 | 1003.1 |
| 20260507120503 | 56 | 72 | 4.0 | 13.0 | 0.00 | 0.00 | 0.00 | 91 | 1003.1 |
| 20260507120004 | 56 | 135 | 2.0 | 5.0 | 0.00 | 0.00 | 0.00 | 91 | 1002.9 |
| 20260507115504 | 56 | 222 | 2.0 | 7.0 | 0.00 | 0.00 | 0.00 | 91 | 1002.6 |
| 20260507114503 | 56 | 53 | 2.0 | 6.0 | 0.00 | 0.00 | 0.00 | 91 | 1002.7 |
| 20260507113504 | 56 | 47 | 5.0 | 9.0 | 0.00 | 0.00 | 0.00 | 91 | 1003.1 |
| 20260507113004 | 56 | 84 | 2.0 | 6.0 | 0.00 | 0.00 | 0.00 | 91 | 1003.1 |
| 20260507112003 | 56 | 109 | 2.0 | 5.0 | 0.00 | 0.00 | 0.00 | 90 | 1002.9 |
| 20260507111504 | 56 | 45 | 3.0 | 8.0 | 0.00 | 0.00 | 0.00 | 90 | 1002.7 |
| 20260507111004 | 56 | 71 | 2.0 | 5.0 | 0.00 | 0.00 | 0.00 | 90 | 1002.6 |
| 20260507110504 | 56 | 114 | 2.0 | 3.0 | 0.00 | 0.00 | 0.00 | 90 | 1002.7 |
| 20260507110004 | 56 | 0 | 1.0 | 3.0 | 0.00 | 0.00 | 0.00 | 90 | 1002.7 |
| 20260507105504 | 56 | 199 | 2.0 | 8.0 | 0.00 | 0.00 | 0.00 | 90 | 1002.7 |
| 20260507105004 | 56 | 63 | 2.0 | 5.0 | 0.00 | 0.00 | 0.00 | 89 | 1002.7 |
| 20260507104504 | 56 | 144 | 3.0 | 7.0 | 0.00 | 0.00 | 0.00 | 89 | 1002.8 |
| 20260507104004 | 56 | 59 | 1.0 | 6.0 | 0.00 | 0.00 | 0.00 | 89 | 1003.0 |
| 20260507103504 | 57 | 63 | 5.0 | 12.0 | 0.00 | 0.00 | 0.00 | 89 | 1002.8 |
| 20260507103004 | 57 | 63 | 2.0 | 5.0 | 0.00 | 0.00 | 0.00 | 89 | 1002.4 |
| 20260507102504 | 57 | 154 | 2.0 | 7.0 | 0.00 | 0.00 | 0.00 | 89 | 1002.3 |
| 20260507101004 | 57 | 167 | 1.0 | 5.0 | 0.00 | 0.00 | 0.00 | 89 | 1002.6 |
| 20260507100504 | 57 | 98 | 3.0 | 7.0 | 0.00 | 0.00 | 0.00 | 89 | 1002.4 |
| 20260507100005 | 57 | 176 | 3.0 | 6.0 | 0.00 | 0.00 | 0.00 | 89 | 1002.2 |
| 20260507095504 | 57 | 35 | 2.0 | 3.0 | 0.00 | 0.00 | 0.00 | 89 | 1002.3 |
| 20260507095004 | 57 | 93 | 1.0 | 5.0 | 0.00 | 0.00 | 0.00 | 89 | 1002.4 |
| 20260507094504 | 57 | 202 | 2.0 | 5.0 | 0.00 | 0.00 | 0.00 | 88 | 1002.4 |
| 20260507094004 | 57 | 87 | 2.0 | 5.0 | 0.00 | 0.00 | 0.00 | 89 | 1002.5 |
| 20260507093504 | 57 | 351 | 1.0 | 7.0 | 0.00 | 0.00 | 0.00 | 89 | 1002.1 |
| 20260507093004 | 57 | 107 | 2.0 | 6.0 | 0.00 | 0.00 | 0.00 | 88 | 1002.0 |
| 20260507092504 | 57 | 178 | 2.0 | 6.0 | 0.00 | 0.00 | 0.00 | 88 | 1002.0 |
| 20260507090504 | 57 | 145 | 0.0 | 2.0 | 0.00 | 0.00 | 0.00 | 88 | 1001.6 |
| 20260507090005 | 57 | 35 | 1.0 | 5.0 | 0.00 | 0.00 | 0.00 | 88 | 1001.8 |
| 20260507085503 | 57 | 183 | 3.0 | 5.0 | 0.00 | 0.00 | 0.00 | 88 | 1001.7 |
| 20260507085004 | 57 | 169 | 1.0 | 5.0 | 0.00 | 0.00 | 0.00 | 88 | 1001.7 |
| 20260507084504 | 57 | 90 | 1.0 | 5.0 | 0.00 | 0.00 | 0.00 | 88 | 1001.5 |
| 20260507084004 | 57 | 109 | 0.0 | 5.0 | 0.00 | 0.00 | 0.00 | 88 | 1001.6 |
| 20260507083504 | 57 | 193 | 2.0 | 2.0 | 0.00 | 0.00 | 0.00 | 88 | 1001.5 |
| 20260507083005 | 57 | 129 | 1.0 | 3.0 | 0.00 | 0.00 | 0.00 | 88 | 1001.3 |
| 20260507082004 | 57 | 179 | 1.0 | 5.0 | 0.00 | 0.00 | 0.00 | 87 | 1001.4 |
| 20260507081504 | 58 | 173 | 3.0 | 5.0 | 0.00 | 0.00 | 0.00 | 87 | 1001.3 |
| 20260507080504 | 58 | 222 | 2.0 | 7.0 | 0.00 | 0.00 | 0.00 | 87 | 1001.3 |
| 20260507075003 | 58 | 179 | 2.0 | 3.0 | 0.00 | 0.00 | 0.00 | 87 | 1001.1 |
| 20260507074504 | 58 | 189 | 1.0 | 3.0 | 0.00 | 0.00 | 0.00 | 87 | 1001.1 |
| 20260507074004 | 58 | 217 | 1.0 | 2.0 | 0.00 | 0.00 | 0.00 | 87 | 1001.0 |
| 20260507073504 | 58 | 171 | 1.0 | 6.0 | 0.00 | 0.00 | 0.00 | 86 | 1000.6 |
| 20260507073004 | 58 | 158 | 3.0 | 7.0 | 0.00 | 0.00 | 0.00 | 86 | 1000.6 |
| 20260507072504 | 58 | 54 | 2.0 | 5.0 | 0.00 | 0.00 | 0.00 | 86 | 1000.8 |
| 20260507071504 | 58 | 184 | 0.0 | 2.0 | 0.00 | 0.00 | 0.00 | 86 | 1001.0 |
| 20260507071004 | 58 | 154 | 2.0 | 7.0 | 0.00 | 0.00 | 0.00 | 86 | 1000.9 |
| 20260507070504 | 58 | 205 | 2.0 | 7.0 | 0.00 | 0.00 | 0.00 | 86 | 1001.0 |
| 20260507070009 | 58 | 191 | 1.0 | 5.0 | 0.00 | 0.00 | 0.00 | 85 | 1001.0 |
| 20260507065504 | 58 | 189 | 1.0 | 3.0 | 0.00 | 0.00 | 0.00 | 85 | 1001.0 |
| 20260507065004 | 58 | 195 | 2.0 | 8.0 | 0.00 | 0.00 | 0.00 | 85 | 1000.8 |
| 20260507064504 | 58 | 175 | 2.0 | 8.0 | 0.00 | 0.00 | 0.00 | 85 | 1000.6 |
| 20260507063004 | 59 | 231 | 1.0 | 6.0 | 0.00 | 0.00 | 0.00 | 84 | 1000.8 |
| 20260507062004 | 59 | 151 | 2.0 | 5.0 | 0.00 | 0.00 | 0.00 | 84 | 1000.8 |
| 20260507061004 | 59 | 178 | 2.0 | 3.0 | 0.00 | 0.00 | 0.00 | 84 | 1001.0 |
| 20260507060504 | 59 | 191 | 2.0 | 7.0 | 0.00 | 0.00 | 0.00 | 85 | 1001.2 |
| 20260507060004 | 59 | 202 | 2.0 | 7.0 | 0.00 | 0.00 | 0.00 | 85 | 1001.1 |
| 20260507055503 | 59 | 167 | 1.0 | 2.0 | 0.00 | 0.00 | 0.00 | 85 | 1000.7 |
| 20260507055004 | 59 | 87 | 0.0 | 2.0 | 0.00 | 0.00 | 0.00 | 85 | 1000.9 |
| 20260507054504 | 59 | 72 | 1.0 | 3.0 | 0.00 | 0.00 | 0.00 | 85 | 1001.0 |
| 20260507054004 | 59 | 208 | 1.0 | 3.0 | 0.00 | 0.00 | 0.00 | 85 | 1000.8 |
| 20260507053504 | 59 | 195 | 1.0 | 3.0 | 0.00 | 0.00 | 0.00 | 84 | 1000.7 |
| 20260507053005 | 59 | 194 | 2.0 | 5.0 | 0.00 | 0.00 | 0.00 | 84 | 1000.6 |
| 20260507052504 | 59 | 178 | 3.0 | 5.0 | 0.00 | 0.00 | 0.00 | 84 | 1000.8 |
| 20260507052004 | 60 | 132 | 1.0 | 5.0 | 0.00 | 0.00 | 0.00 | 84 | 1000.9 |
| 20260507051503 | 60 | 143 | 2.0 | 6.0 | 0.00 | 0.00 | 0.00 | 83 | 1000.9 |
| 20260507051004 | 60 | 162 | 2.0 | 6.0 | 0.00 | 0.00 | 0.00 | 83 | 1000.8 |
| 20260507050504 | 60 | 179 | 3.0 | 6.0 | 0.00 | 0.00 | 0.00 | 83 | 1000.8 |
| 20260507050004 | 60 | 163 | 2.0 | 5.0 | 0.00 | 0.00 | 0.00 | 83 | 1000.8 |
| 20260507045504 | 60 | 185 | 2.0 | 6.0 | 0.00 | 0.00 | 0.00 | 83 | 1001.1 |
| 20260507045004 | 60 | 249 | 1.0 | 5.0 | 0.00 | 0.00 | 0.00 | 83 | 1000.8 |
| 20260507044004 | 60 | 137 | 3.0 | 6.0 | 0.00 | 0.00 | 0.00 | 83 | 1000.8 |
| 20260507043503 | 60 | 216 | 3.0 | 6.0 | 0.00 | 0.00 | 0.00 | 83 | 1000.8 |
| 20260507042004 | 60 | 141 | 2.0 | 7.0 | 0.00 | 0.00 | 0.00 | 84 | 1000.9 |
| 20260507041504 | 60 | 116 | 1.0 | 2.0 | 0.00 | 0.00 | 0.00 | 84 | 1001.1 |
| 20260507041004 | 60 | 148 | 1.0 | 2.0 | 0.00 | 0.00 | 0.00 | 84 | 1001.1 |
| 20260507040004 | 60 | 70 | 2.0 | 5.0 | 0.00 | 0.00 | 0.00 | 84 | 1001.2 |
| 20260507034505 | 60 | 356 | 2.0 | 6.0 | 0.00 | 0.00 | 0.00 | 84 | 1000.6 |
| 20260507034004 | 60 | 23 | 2.0 | 7.0 | 0.00 | 0.00 | 0.00 | 84 | 1000.7 |
| 20260507033504 | 60 | 89 | 3.0 | 7.0 | 0.00 | 0.00 | 0.00 | 84 | 1000.8 |
| 20260507032004 | 60 | 98 | 3.0 | 6.0 | 0.00 | 0.00 | 0.00 | 84 | 1000.6 |
| 20260507031504 | 60 | 284 | 2.0 | 7.0 | 0.00 | 0.00 | 0.00 | 84 | 1000.2 |
| 20260507031004 | 60 | 86 | 2.0 | 6.0 | 0.00 | 0.00 | 0.00 | 85 | 1000.4 |
| 20260507030504 | 60 | 105 | 2.0 | 7.0 | 0.00 | 0.00 | 0.00 | 85 | 1000.2 |
| 20260507030004 | 60 | 67 | 1.0 | 3.0 | 0.00 | 0.00 | 0.00 | 85 | 1000.5 |
| 20260507025504 | 60 | 93 | 2.0 | 5.0 | 0.00 | 0.00 | 0.00 | 85 | 1000.9 |
| 20260507024504 | 60 | 10 | 2.0 | 5.0 | 0.00 | 0.00 | 0.00 | 85 | 1000.7 |
| 20260507024003 | 60 | 91 | 2.0 | 5.0 | 0.00 | 0.00 | 0.00 | 85 | 1000.6 |
| 20260507023504 | 60 | 61 | 3.0 | 6.0 | 0.00 | 0.00 | 0.00 | 85 | 1000.4 |
| 20260507023004 | 60 | 79 | 2.0 | 6.0 | 0.00 | 0.00 | 0.00 | 85 | 1000.1 |
| 20260507022503 | 60 | 136 | 2.0 | 5.0 | 0.00 | 0.00 | 0.00 | 85 | 999.9 |
| 20260507020504 | 60 | 56 | 1.0 | 6.0 | 0.00 | 0.00 | 0.00 | 85 | 1000.3 |
| 20260507020004 | 60 | 111 | 2.0 | 3.0 | 0.00 | 0.00 | 0.00 | 84 | 1000.1 |
| 20260507015504 | 60 | 118 | 2.0 | 5.0 | 0.00 | 0.00 | 0.00 | 84 | 999.8 |
| 20260507015004 | 60 | 100 | 1.0 | 2.0 | 0.00 | 0.00 | 0.00 | 84 | 999.7 |
| 20260507014504 | 60 | 87 | 2.0 | 5.0 | 0.00 | 0.00 | 0.00 | 84 | 999.5 |
| 20260507014004 | 60 | 82 | 2.0 | 5.0 | 0.00 | 0.00 | 0.00 | 84 | 999.5 |
| 20260507013504 | 60 | 131 | 2.0 | 3.0 | 0.00 | 0.00 | 0.00 | 84 | 999.5 |
| 20260507012504 | 60 | 92 | 2.0 | 5.0 | 0.00 | 0.00 | 0.00 | 84 | 999.1 |
| 20260507012005 | 60 | 138 | 1.0 | 3.0 | 0.00 | 0.00 | 0.00 | 84 | 999.0 |
| 20260507011004 | 60 | 72 | 0.0 | 2.0 | 0.00 | 0.00 | 0.00 | 84 | 999.2 |
| 20260507010504 | 60 | 158 | 2.0 | 6.0 | 0.00 | 0.00 | 0.00 | 84 | 999.1 |
| 20260507010004 | 60 | 65 | 1.0 | 3.0 | 0.00 | 0.00 | 0.00 | 84 | 998.8 |
| 20260507005504 | 60 | 131 | 1.0 | 2.0 | 0.00 | 0.00 | 0.00 | 83 | 998.9 |
| 20260507005004 | 60 | 115 | 1.0 | 3.0 | 0.00 | 0.00 | 0.00 | 83 | 998.6 |
| 20260507004503 | 60 | 132 | 2.0 | 6.0 | 0.00 | 0.00 | 0.00 | 83 | 998.5 |
| 20260507004004 | 60 | 63 | 2.0 | 3.0 | 0.00 | 0.00 | 0.00 | 83 | 998.9 |
| 20260507003504 | 60 | 70 | 2.0 | 5.0 | 0.00 | 0.00 | 0.00 | 83 | 998.9 |
| 20260507003004 | 61 | 114 | 2.0 | 3.0 | 0.00 | 0.00 | 0.00 | 83 | 998.6 |
| 20260507002504 | 61 | 68 | 1.0 | 3.0 | 0.00 | 0.00 | 0.00 | 83 | 998.3 |
| 20260507002004 | 61 | 77 | 0.0 | 3.0 | 0.00 | 0.00 | 0.00 | 83 | 998.5 |
| 20260507001504 | 61 | 90 | 2.0 | 5.0 | 0.00 | 0.00 | 0.00 | 82 | 998.5 |
| 20260507001004 | 61 | 77 | 1.0 | 2.0 | 0.00 | 0.00 | 0.00 | 82 | 998.5 |
| 20260507000505 | 61 | 94 | 3.0 | 5.0 | 0.00 | 0.00 | 0.00 | 82 | 998.4 |
| 20260507000004 | 61 | 127 | 3.0 | 6.0 | 0.00 | 0.00 | 0.00 | 82 | 998.4 |
| 20260506235503 | 61 | 83 | 2.0 | 5.0 | 0.00 | 0.00 | 0.00 | 82 | 998.4 |
| 20260506235004 | 61 | 125 | 1.0 | 5.0 | 0.00 | 0.00 | 0.00 | 82 | 998.5 |
| 20260506234504 | 61 | 111 | 2.0 | 5.0 | 0.00 | 0.00 | 0.00 | 82 | 998.5 |
| 20260506234004 | 61 | 63 | 2.0 | 6.0 | 0.00 | 0.00 | 0.00 | 82 | 998.4 |
| 20260506233504 | 61 | 117 | 2.0 | 6.0 | 0.00 | 0.00 | 0.00 | 81 | 998.2 |
| 20260506233004 | 61 | 56 | 2.0 | 6.0 | 0.00 | 0.00 | 0.00 | 82 | 998.4 |
| 20260506232504 | 61 | 61 | 2.0 | 7.0 | 0.00 | 0.00 | 0.00 | 82 | 998.4 |
| 20260506232004 | 61 | 143 | 3.0 | 7.0 | 0.00 | 0.00 | 0.00 | 82 | 998.1 |
| 20260506231504 | 61 | 98 | 3.0 | 6.0 | 0.00 | 0.00 | 0.00 | 82 | 998.6 |
| 20260506231004 | 61 | 121 | 2.0 | 5.0 | 0.00 | 0.00 | 0.00 | 82 | 998.7 |
| 20260506230504 | 61 | 123 | 2.0 | 7.0 | 0.00 | 0.00 | 0.00 | 81 | 998.4 |
| 20260506230004 | 61 | 103 | 2.0 | 8.0 | 0.00 | 0.00 | 0.00 | 81 | 998.0 |
| 20260506225005 | 62 | 314 | 2.0 | 3.0 | 0.00 | 0.00 | 0.00 | 80 | 998.1 |
| 20260506224504 | 61 | 84 | 3.0 | 6.0 | 0.00 | 0.00 | 0.00 | 82 | 998.4 |
| 20260506224004 | 61 | 116 | 4.0 | 7.0 | 0.00 | 0.00 | 0.00 | 82 | 998.3 |
| 20260506223504 | 61 | 117 | 2.0 | 6.0 | 0.00 | 0.00 | 0.00 | 81 | 998.2 |
| 20260506223004 | 61 | 180 | 2.0 | 7.0 | 0.00 | 0.00 | 0.00 | 82 | 998.2 |
| 20260506222504 | 61 | 101 | 3.0 | 7.0 | 0.00 | 0.00 | 0.00 | 82 | 998.2 |
| 20260506222004 | 60 | 89 | 3.0 | 8.0 | 0.00 | 0.00 | 0.00 | 83 | 997.9 |
| 20260506221504 | 61 | 120 | 3.0 | 7.0 | 0.00 | 0.00 | 0.00 | 82 | 998.1 |
| 20260506221004 | 60 | 97 | 3.0 | 6.0 | 0.00 | 0.00 | 0.00 | 82 | 998.0 |
| 20260506220504 | 60 | 48 | 2.0 | 7.0 | 0.00 | 0.00 | 0.00 | 83 | 998.4 |
| 20260506220004 | 60 | 89 | 2.0 | 6.0 | 0.00 | 0.00 | 0.00 | 83 | 998.2 |
| 20260506215504 | 60 | 89 | 3.0 | 7.0 | 0.00 | 0.00 | 0.00 | 84 | 998.4 |
| 20260506215004 | 60 | 115 | 3.0 | 7.0 | 0.00 | 0.00 | 0.00 | 84 | 998.1 |
| 20260506214504 | 60 | 102 | 4.0 | 8.0 | 0.00 | 0.00 | 0.00 | 83 | 998.1 |
| 20260506213503 | 59 | 106 | 3.0 | 6.0 | 0.00 | 0.00 | 0.00 | 84 | 998.1 |
| 20260506212504 | 59 | 64 | 3.0 | 9.0 | 0.00 | 0.00 | 0.00 | 84 | 998.3 |
| 20260506212004 | 60 | 122 | 3.0 | 9.0 | 0.00 | 0.00 | 0.00 | 83 | 998.4 |
| 20260506211504 | 59 | 121 | 2.0 | 8.0 | 0.00 | 0.00 | 0.00 | 84 | 998.4 |
| 20260506211004 | 59 | 302 | 3.0 | 9.0 | 0.00 | 0.00 | 0.00 | 84 | 998.5 |